owner,sensor,date,latitude,longitude,air_pressure(mBar),qcFlag 
TABS,ioos:station:wmo:42046:1,2002-06-01T01:39:00Z,27.8903,-94.0367,1009.47,11111222 
TABS,ioos:station:wmo:42046:1,2002-06-01T02:39:00Z,27.8903,-94.0367,1009.92,11111222 
TABS,ioos:station:wmo:42046:1,2002-06-01T06:39:00Z,27.8903,-94.0367,1011.44,11111222 
TABS,ioos:station:wmo:42046:1,2002-06-01T07:39:00Z,27.8903,-94.0367,1011.06,11111222 
TABS,ioos:station:wmo:42046:1,2002-06-01T11:09:00Z,27.8903,-94.0367,1011.5,11111222 
TABS,ioos:station:wmo:42046:1,2002-06-01T12:09:00Z,27.8903,-94.0367,1011.88,11111222 
TABS,ioos:station:wmo:42046:1,2002-06-01T12:39:00Z,27.8903,-94.0367,1012.08,11111222 
TABS,ioos:station:wmo:42046:1,2002-06-01T14:09:00Z,27.8903,-94.0367,1013.03,11111222 
TABS,ioos:station:wmo:42046:1,2002-06-01T14:39:00Z,27.8903,-94.0367,1013.22,11111222 
TABS,ioos:station:wmo:42046:1,2002-06-01T15:09:00Z,27.8903,-94.0367,1013.34,11111222 
TABS,ioos:station:wmo:42046:1,2002-06-01T16:09:00Z,27.8903,-94.0367,1013.34,11111222 
TABS,ioos:station:wmo:42046:1,2002-06-01T16:39:00Z,27.8903,-94.0367,1013.6,11111222 
TABS,ioos:station:wmo:42046:1,2002-06-01T17:09:00Z,27.8903,-94.0367,1013.41,11111222 
TABS,ioos:station:wmo:42046:1,2002-06-01T17:39:00Z,27.8903,-94.0367,1013.28,11111222 
TABS,ioos:station:wmo:42046:1,2002-06-01T18:09:00Z,27.8903,-94.0367,1013.15,11111222 
TABS,ioos:station:wmo:42046:1,2002-06-01T18:39:00Z,27.8903,-94.0367,1012.77,11111222 
TABS,ioos:station:wmo:42046:1,2002-06-01T19:09:00Z,27.8903,-94.0367,1012.65,11111222 
TABS,ioos:station:wmo:42046:1,2002-06-01T19:39:00Z,27.8903,-94.0367,1012.52,11111222 
TABS,ioos:station:wmo:42046:1,2002-06-01T20:39:00Z,27.8903,-94.0367,1012.14,11111222 
TABS,ioos:station:wmo:42046:1,2002-06-01T21:39:00Z,27.8903,-94.0367,1011.69,11111222 
TABS,ioos:station:wmo:42046:1,2002-06-01T22:39:00Z,27.8903,-94.0367,1011.38,11111222 
TABS,ioos:station:wmo:42046:1,2002-06-01T23:39:00Z,27.8903,-94.0367,1011.31,11111222 
TABS,ioos:station:wmo:42046:1,2002-06-02T00:39:00Z,27.8903,-94.0367,1011.31,11111222 
TABS,ioos:station:wmo:42046:1,2002-06-02T01:09:00Z,27.8903,-94.0367,1011.25,11111222 
TABS,ioos:station:wmo:42046:1,2002-06-02T02:09:00Z,27.8903,-94.0367,1011.57,11111222 
TABS,ioos:station:wmo:42046:1,2002-06-02T02:39:00Z,27.8903,-94.0367,1011.82,11111222 
TABS,ioos:station:wmo:42046:1,2002-06-02T03:09:00Z,27.8903,-94.0367,1012.01,11111222 
TABS,ioos:station:wmo:42046:1,2002-06-02T04:09:00Z,27.8903,-94.0367,1012.46,11111222 
TABS,ioos:station:wmo:42046:1,2002-06-02T06:09:00Z,27.8903,-94.0367,1012.14,11111222 
TABS,ioos:station:wmo:42046:1,2002-06-02T07:39:00Z,27.8903,-94.0367,1011.63,11111222 
TABS,ioos:station:wmo:42046:1,2002-06-02T08:09:00Z,27.8903,-94.0367,1011.76,11111222 
TABS,ioos:station:wmo:42046:1,2002-06-02T09:09:00Z,27.8903,-94.0367,1011.63,11111222 
TABS,ioos:station:wmo:42046:1,2002-06-02T10:09:00Z,27.8903,-94.0367,1011.63,11111222 
TABS,ioos:station:wmo:42046:1,2002-06-02T10:39:00Z,27.8903,-94.0367,1011.95,11111222 
TABS,ioos:station:wmo:42046:1,2002-06-02T11:09:00Z,27.8903,-94.0367,1012.27,11111222 
TABS,ioos:station:wmo:42046:1,2002-06-02T11:39:00Z,27.8903,-94.0367,1012.46,11111222 
TABS,ioos:station:wmo:42046:1,2002-06-02T12:39:00Z,27.8903,-94.0367,1012.77,11111222 
TABS,ioos:station:wmo:42046:1,2002-06-02T17:09:00Z,27.8903,-94.0367,1013.15,11111222 
TABS,ioos:station:wmo:42046:1,2002-06-02T17:39:00Z,27.8903,-94.0367,1013.09,11111222 
TABS,ioos:station:wmo:42046:1,2002-06-02T18:09:00Z,27.8903,-94.0367,1012.77,11111222 
TABS,ioos:station:wmo:42046:1,2002-06-02T19:09:00Z,27.8903,-94.0367,1012.08,11111222 
TABS,ioos:station:wmo:42046:1,2002-06-02T19:39:00Z,27.8903,-94.0367,1011.88,11111222 
TABS,ioos:station:wmo:42046:1,2002-06-02T21:09:00Z,27.8903,-94.0367,1011.44,11111222 
TABS,ioos:station:wmo:42046:1,2002-06-02T23:09:00Z,27.8903,-94.0367,1010.62,11111222 
TABS,ioos:station:wmo:42046:1,2002-06-03T00:09:00Z,27.8903,-94.0367,1010.87,11111222 
TABS,ioos:station:wmo:42046:1,2002-06-03T02:09:00Z,27.8903,-94.0367,1011.12,11111222 
TABS,ioos:station:wmo:42046:1,2002-06-03T03:39:00Z,27.8903,-94.0367,1011.63,11111222 
TABS,ioos:station:wmo:42046:1,2002-06-03T04:09:00Z,27.8903,-94.0367,1011.76,11111222 
TABS,ioos:station:wmo:42046:1,2002-06-03T04:39:00Z,27.8903,-94.0367,1011.95,11111222 
TABS,ioos:station:wmo:42046:1,2002-06-03T05:09:00Z,27.8903,-94.0367,1011.69,11111222 
TABS,ioos:station:wmo:42046:1,2002-06-03T06:09:00Z,27.8903,-94.0367,1011.19,11111222 
TABS,ioos:station:wmo:42046:1,2002-06-03T06:39:00Z,27.8903,-94.0367,1011.0,11111222 
TABS,ioos:station:wmo:42046:1,2002-06-03T07:39:00Z,27.8903,-94.0367,1010.81,11111222 
TABS,ioos:station:wmo:42046:1,2002-06-03T10:39:00Z,27.8903,-94.0367,1011.57,11111222 
TABS,ioos:station:wmo:42046:1,2002-06-03T11:09:00Z,27.8903,-94.0367,1011.76,11111222 
TABS,ioos:station:wmo:42046:1,2002-06-03T11:39:00Z,27.8903,-94.0367,1012.01,11111222 
TABS,ioos:station:wmo:42046:1,2002-06-03T16:09:00Z,27.8903,-94.0367,1013.22,11111222 
TABS,ioos:station:wmo:42046:1,2002-06-03T17:39:00Z,27.8903,-94.0367,1013.03,11111222 
TABS,ioos:station:wmo:42046:1,2002-06-03T18:09:00Z,27.8903,-94.0367,1012.96,11111222 
TABS,ioos:station:wmo:42046:1,2002-06-03T18:39:00Z,27.8903,-94.0367,1012.71,11111222 
TABS,ioos:station:wmo:42046:1,2002-06-03T19:39:00Z,27.8903,-94.0367,1012.46,11111222 
TABS,ioos:station:wmo:42046:1,2002-06-03T20:09:00Z,27.8903,-94.0367,1012.39,11111222 
TABS,ioos:station:wmo:42046:1,2002-06-03T20:39:00Z,27.8903,-94.0367,1012.33,11111222 
TABS,ioos:station:wmo:42046:1,2002-06-03T22:09:00Z,27.8903,-94.0367,1011.95,11111222 
TABS,ioos:station:wmo:42046:1,2002-06-04T00:09:00Z,27.8903,-94.0367,1011.19,11111222 
TABS,ioos:station:wmo:42046:1,2002-06-04T02:09:00Z,27.8903,-94.0367,1011.82,11111222 
TABS,ioos:station:wmo:42046:1,2002-06-04T04:39:00Z,27.8903,-94.0367,1012.9,11111222 
TABS,ioos:station:wmo:42046:1,2002-06-04T05:09:00Z,27.8903,-94.0367,1012.77,11111222 
TABS,ioos:station:wmo:42046:1,2002-06-04T07:09:00Z,27.8903,-94.0367,1012.08,11111222 
TABS,ioos:station:wmo:42046:1,2002-06-04T08:39:00Z,27.8903,-94.0367,1011.69,11111222 
TABS,ioos:station:wmo:42046:1,2002-06-04T09:09:00Z,27.8903,-94.0367,1012.01,11111222 
TABS,ioos:station:wmo:42046:1,2002-06-04T09:39:00Z,27.8903,-94.0367,1012.08,11111222 
TABS,ioos:station:wmo:42046:1,2002-06-04T10:09:00Z,27.8903,-94.0367,1012.08,11111222 
TABS,ioos:station:wmo:42046:1,2002-06-04T11:39:00Z,27.8903,-94.0367,1012.52,11111222 
TABS,ioos:station:wmo:42046:1,2002-06-04T15:39:00Z,27.8903,-94.0367,1014.04,11111222 
TABS,ioos:station:wmo:42046:1,2002-06-04T16:09:00Z,27.8903,-94.0367,1014.11,11111222 
TABS,ioos:station:wmo:42046:1,2002-06-04T17:09:00Z,27.8903,-94.0367,1014.17,11111222 
TABS,ioos:station:wmo:42046:1,2002-06-04T18:39:00Z,27.8903,-94.0367,1013.85,11111222 
TABS,ioos:station:wmo:42046:1,2002-06-04T20:09:00Z,27.8903,-94.0367,1013.66,11111222 
TABS,ioos:station:wmo:42046:1,2002-06-04T21:39:00Z,27.8903,-94.0367,1012.84,11111222 
TABS,ioos:station:wmo:42046:1,2002-06-04T22:39:00Z,27.8903,-94.0367,1012.52,11111222 
TABS,ioos:station:wmo:42046:1,2002-06-05T01:09:00Z,27.8903,-94.0367,1011.38,11111222 
TABS,ioos:station:wmo:42046:1,2002-06-05T02:09:00Z,27.8903,-94.0367,1011.69,11111222 
TABS,ioos:station:wmo:42046:1,2002-06-05T02:39:00Z,27.8903,-94.0367,1011.76,11111222 
TABS,ioos:station:wmo:42046:1,2002-06-05T03:39:00Z,27.8903,-94.0367,1012.96,11111222 
TABS,ioos:station:wmo:42046:1,2002-06-05T05:09:00Z,27.8903,-94.0367,1013.41,11111222 
TABS,ioos:station:wmo:42046:1,2002-06-05T06:09:00Z,27.8903,-94.0367,1013.09,11111222 
TABS,ioos:station:wmo:42046:1,2002-06-05T07:09:00Z,27.8903,-94.0367,1012.77,11111222 
TABS,ioos:station:wmo:42046:1,2002-06-05T08:09:00Z,27.8903,-94.0367,1011.95,11111222 
TABS,ioos:station:wmo:42046:1,2002-06-05T08:39:00Z,27.8903,-94.0367,1012.01,11111222 
TABS,ioos:station:wmo:42046:1,2002-06-05T09:39:00Z,27.8903,-94.0367,1011.76,11111222 
TABS,ioos:station:wmo:42046:1,2002-06-05T10:09:00Z,27.8903,-94.0367,1011.88,11111222 
TABS,ioos:station:wmo:42046:1,2002-06-05T11:09:00Z,27.8903,-94.0367,1012.2,11111222 
TABS,ioos:station:wmo:42046:1,2002-06-05T11:39:00Z,27.8903,-94.0367,1012.2,11111222 
TABS,ioos:station:wmo:42046:1,2002-06-05T12:09:00Z,27.8903,-94.0367,1012.33,11111222 
TABS,ioos:station:wmo:42046:1,2002-06-05T13:39:00Z,27.8903,-94.0367,1012.77,11111222 
TABS,ioos:station:wmo:42046:1,2002-06-05T14:09:00Z,27.8903,-94.0367,1012.84,11111222 
TABS,ioos:station:wmo:42046:1,2002-06-05T15:39:00Z,27.8903,-94.0367,1012.84,11111222 
TABS,ioos:station:wmo:42046:1,2002-06-05T16:09:00Z,27.8903,-94.0367,1013.09,11111222 
TABS,ioos:station:wmo:42046:1,2002-06-05T17:39:00Z,27.8903,-94.0367,1013.22,11111222 
TABS,ioos:station:wmo:42046:1,2002-06-05T18:09:00Z,27.8903,-94.0367,1013.09,11111222 
TABS,ioos:station:wmo:42046:1,2002-06-05T18:39:00Z,27.8903,-94.0367,1013.03,11111222 
TABS,ioos:station:wmo:42046:1,2002-06-05T19:09:00Z,27.8903,-94.0367,1013.03,11111222 
TABS,ioos:station:wmo:42046:1,2002-06-05T20:09:00Z,27.8903,-94.0367,1012.65,11111222 
TABS,ioos:station:wmo:42046:1,2002-06-05T21:39:00Z,27.8903,-94.0367,1012.08,11111222 
TABS,ioos:station:wmo:42046:1,2002-06-05T22:09:00Z,27.8903,-94.0367,1011.63,11111222 
TABS,ioos:station:wmo:42046:1,2002-06-05T22:39:00Z,27.8903,-94.0367,1011.38,11111222 
TABS,ioos:station:wmo:42046:1,2002-06-05T23:09:00Z,27.8903,-94.0367,1011.31,11111222 
TABS,ioos:station:wmo:42046:1,2002-06-05T23:39:00Z,27.8903,-94.0367,1011.31,11111222 
TABS,ioos:station:wmo:42046:1,2002-06-06T00:09:00Z,27.8903,-94.0367,1011.44,11111222 
TABS,ioos:station:wmo:42046:1,2002-06-06T00:39:00Z,27.8903,-94.0367,1011.44,11111222 
TABS,ioos:station:wmo:42046:1,2002-06-06T01:09:00Z,27.8903,-94.0367,1011.57,11111222 
TABS,ioos:station:wmo:42046:1,2002-06-06T03:39:00Z,27.8903,-94.0367,1012.39,11111222 
TABS,ioos:station:wmo:42046:1,2002-06-06T04:09:00Z,27.8903,-94.0367,1012.58,11111222 
TABS,ioos:station:wmo:42046:1,2002-06-06T05:09:00Z,27.8903,-94.0367,1012.77,11111222 
TABS,ioos:station:wmo:42046:1,2002-06-06T06:09:00Z,27.8903,-94.0367,1013.03,11111222 
TABS,ioos:station:wmo:42046:1,2002-06-06T07:09:00Z,27.8903,-94.0367,1012.58,11111222 
TABS,ioos:station:wmo:42046:1,2002-06-06T09:09:00Z,27.8903,-94.0367,1011.69,11111222 
TABS,ioos:station:wmo:42046:1,2002-06-06T09:39:00Z,27.8903,-94.0367,1011.63,11111222 
TABS,ioos:station:wmo:42046:1,2002-06-06T10:09:00Z,27.8903,-94.0367,1011.44,11111222 
TABS,ioos:station:wmo:42046:1,2002-06-06T11:39:00Z,27.8903,-94.0367,1012.2,11111222 
TABS,ioos:station:wmo:42046:1,2002-06-06T13:09:00Z,27.8903,-94.0367,1012.77,11111222 
TABS,ioos:station:wmo:42046:1,2002-06-06T13:39:00Z,27.8903,-94.0367,1013.15,11111222 
TABS,ioos:station:wmo:42046:1,2002-06-06T17:09:00Z,27.8903,-94.0367,1013.98,11111222 
TABS,ioos:station:wmo:42046:1,2002-06-06T19:39:00Z,27.8903,-94.0367,1013.22,11111222 
TABS,ioos:station:wmo:42046:1,2002-06-06T20:39:00Z,27.8903,-94.0367,1012.84,11111222 
TABS,ioos:station:wmo:42046:1,2002-06-07T00:39:00Z,27.8903,-94.0367,1011.5,11111222 
TABS,ioos:station:wmo:42046:1,2002-06-07T01:09:00Z,27.8903,-94.0367,1011.63,11111222 
TABS,ioos:station:wmo:42046:1,2002-06-07T01:39:00Z,27.8903,-94.0367,1011.69,11111222 
TABS,ioos:station:wmo:42046:1,2002-06-07T02:09:00Z,27.8903,-94.0367,1011.82,11111222 
TABS,ioos:station:wmo:42046:1,2002-06-07T03:09:00Z,27.8903,-94.0367,1012.52,11111222 
TABS,ioos:station:wmo:42046:1,2002-06-07T04:09:00Z,27.8903,-94.0367,1012.84,11111222 
TABS,ioos:station:wmo:42046:1,2002-06-07T05:09:00Z,27.8903,-94.0367,1013.22,11111222 
TABS,ioos:station:wmo:42046:1,2002-06-07T05:39:00Z,27.8903,-94.0367,1013.34,11111222 
TABS,ioos:station:wmo:42046:1,2002-06-07T06:09:00Z,27.8903,-94.0367,1013.15,11111222 
TABS,ioos:station:wmo:42046:1,2002-06-07T07:09:00Z,27.8903,-94.0367,1012.46,11111222 
TABS,ioos:station:wmo:42046:1,2002-06-07T07:39:00Z,27.8903,-94.0367,1012.33,11111222 
TABS,ioos:station:wmo:42046:1,2002-06-07T08:09:00Z,27.8903,-94.0367,1012.33,11111222 
TABS,ioos:station:wmo:42046:1,2002-06-07T08:39:00Z,27.8903,-94.0367,1012.33,11111222 
TABS,ioos:station:wmo:42046:1,2002-06-07T09:39:00Z,27.8903,-94.0367,1012.33,11111222 
TABS,ioos:station:wmo:42046:1,2002-06-07T12:09:00Z,27.8903,-94.0367,1013.28,11111222 
TABS,ioos:station:wmo:42046:1,2002-06-07T15:09:00Z,27.8903,-94.0367,1014.8,11111222 
TABS,ioos:station:wmo:42046:1,2002-06-07T15:39:00Z,27.8903,-94.0367,1014.93,11111222 
TABS,ioos:station:wmo:42046:1,2002-06-07T16:09:00Z,27.8903,-94.0367,1015.06,11111222 
TABS,ioos:station:wmo:42046:1,2002-06-07T16:39:00Z,27.8903,-94.0367,1015.0,11111222 
TABS,ioos:station:wmo:42046:1,2002-06-07T17:09:00Z,27.8903,-94.0367,1015.12,11111222 
TABS,ioos:station:wmo:42046:1,2002-06-07T18:09:00Z,27.8903,-94.0367,1015.12,11111222 
TABS,ioos:station:wmo:42046:1,2002-06-07T18:39:00Z,27.8903,-94.0367,1014.93,11111222 
TABS,ioos:station:wmo:42046:1,2002-06-07T20:09:00Z,27.8903,-94.0367,1014.11,11111222 
TABS,ioos:station:wmo:42046:1,2002-06-07T20:39:00Z,27.8903,-94.0367,1013.85,11111222 
TABS,ioos:station:wmo:42046:1,2002-06-07T21:09:00Z,27.8903,-94.0367,1013.73,11111222 
TABS,ioos:station:wmo:42046:1,2002-06-07T22:09:00Z,27.8903,-94.0367,1013.03,11111222 
TABS,ioos:station:wmo:42046:1,2002-06-08T00:09:00Z,27.8903,-94.0367,1012.84,11111222 
TABS,ioos:station:wmo:42046:1,2002-06-08T01:09:00Z,27.8903,-94.0367,1013.03,11111222 
TABS,ioos:station:wmo:42046:1,2002-06-08T01:39:00Z,27.8903,-94.0367,1013.03,11111222 
TABS,ioos:station:wmo:42046:1,2002-06-08T02:09:00Z,27.8903,-94.0367,1013.41,11111222 
TABS,ioos:station:wmo:42046:1,2002-06-08T03:09:00Z,27.8903,-94.0367,1013.73,11111222 
TABS,ioos:station:wmo:42046:1,2002-06-08T04:09:00Z,27.8903,-94.0367,1014.17,11111222 
TABS,ioos:station:wmo:42046:1,2002-06-08T04:39:00Z,27.8903,-94.0367,1014.11,11111222 
TABS,ioos:station:wmo:42046:1,2002-06-08T05:09:00Z,27.8903,-94.0367,1014.11,11111222 
TABS,ioos:station:wmo:42046:1,2002-06-08T05:39:00Z,27.8903,-94.0367,1014.11,11111222 
TABS,ioos:station:wmo:42046:1,2002-06-08T07:09:00Z,27.8903,-94.0367,1013.85,11111222 
TABS,ioos:station:wmo:42046:1,2002-06-08T07:39:00Z,27.8903,-94.0367,1013.47,11111222 
TABS,ioos:station:wmo:42046:1,2002-06-08T09:09:00Z,27.8903,-94.0367,1013.47,11111222 
TABS,ioos:station:wmo:42046:1,2002-06-08T09:39:00Z,27.8903,-94.0367,1013.34,11111222 
TABS,ioos:station:wmo:42046:1,2002-06-08T10:09:00Z,27.8903,-94.0367,1013.41,11111222 
TABS,ioos:station:wmo:42046:1,2002-06-08T10:39:00Z,27.8903,-94.0367,1013.6,11111222 
TABS,ioos:station:wmo:42046:1,2002-06-08T11:09:00Z,27.8903,-94.0367,1013.73,11111222 
TABS,ioos:station:wmo:42046:1,2002-06-08T11:39:00Z,27.8903,-94.0367,1013.98,11111222 
TABS,ioos:station:wmo:42046:1,2002-06-08T14:09:00Z,27.8903,-94.0367,1015.31,11111222 
TABS,ioos:station:wmo:42046:1,2002-06-08T14:39:00Z,27.8903,-94.0367,1015.44,11111222 
TABS,ioos:station:wmo:42046:1,2002-06-08T15:09:00Z,27.8903,-94.0367,1015.57,11111222 
TABS,ioos:station:wmo:42046:1,2002-06-08T15:39:00Z,27.8903,-94.0367,1015.76,11111222 
TABS,ioos:station:wmo:42046:1,2002-06-08T17:39:00Z,27.8903,-94.0367,1015.63,11111222 
TABS,ioos:station:wmo:42046:1,2002-06-08T18:39:00Z,27.8903,-94.0367,1015.57,11111222 
TABS,ioos:station:wmo:42046:1,2002-06-08T21:09:00Z,27.8903,-94.0367,1014.17,11111222 
TABS,ioos:station:wmo:42046:1,2002-06-09T02:39:00Z,27.8903,-94.0367,1014.36,11111222 
TABS,ioos:station:wmo:42046:1,2002-06-09T03:09:00Z,27.8903,-94.0367,1014.68,11111222 
TABS,ioos:station:wmo:42046:1,2002-06-09T03:39:00Z,27.8903,-94.0367,1015.06,11111222 
TABS,ioos:station:wmo:42046:1,2002-06-09T04:09:00Z,27.8903,-94.0367,1015.31,11111222 
TABS,ioos:station:wmo:42046:1,2002-06-09T04:39:00Z,27.8903,-94.0367,1015.5,11111222 
TABS,ioos:station:wmo:42046:1,2002-06-09T05:39:00Z,27.8903,-94.0367,1015.63,11111222 
TABS,ioos:station:wmo:42046:1,2002-06-09T07:39:00Z,27.8903,-94.0367,1014.87,11111222 
TABS,ioos:station:wmo:42046:1,2002-06-09T09:39:00Z,27.8903,-94.0367,1014.23,11111222 
TABS,ioos:station:wmo:42046:1,2002-06-09T10:39:00Z,27.8903,-94.0367,1013.85,11111222 
TABS,ioos:station:wmo:42046:1,2002-06-09T15:09:00Z,27.8903,-94.0367,1015.31,11111222 
TABS,ioos:station:wmo:42046:1,2002-06-09T17:39:00Z,27.8903,-94.0367,1015.19,11111222 
TABS,ioos:station:wmo:42046:1,2002-06-09T18:39:00Z,27.8903,-94.0367,1014.87,11111222 
TABS,ioos:station:wmo:42046:1,2002-06-09T19:09:00Z,27.8903,-94.0367,1014.61,11111222 
TABS,ioos:station:wmo:42046:1,2002-06-09T19:39:00Z,27.8903,-94.0367,1014.3,11111222 
TABS,ioos:station:wmo:42046:1,2002-06-09T20:09:00Z,27.8903,-94.0367,1013.98,11111222 
TABS,ioos:station:wmo:42046:1,2002-06-09T21:09:00Z,27.8903,-94.0367,1013.34,11111222 
TABS,ioos:station:wmo:42046:1,2002-06-09T22:09:00Z,27.8903,-94.0367,1013.03,11111222 
TABS,ioos:station:wmo:42046:1,2002-06-09T23:09:00Z,27.8903,-94.0367,1012.77,11111222 
TABS,ioos:station:wmo:42046:1,2002-06-09T23:39:00Z,27.8903,-94.0367,1012.46,11111222 
TABS,ioos:station:wmo:42046:1,2002-06-10T01:09:00Z,27.8903,-94.0367,1012.77,11111222 
TABS,ioos:station:wmo:42046:1,2002-06-10T01:39:00Z,27.8903,-94.0367,1012.77,11111222 
TABS,ioos:station:wmo:42046:1,2002-06-10T02:39:00Z,27.8903,-94.0367,1012.84,11111222 
TABS,ioos:station:wmo:42046:1,2002-06-10T03:39:00Z,27.8903,-94.0367,1013.22,11111222 
TABS,ioos:station:wmo:42046:1,2002-06-10T04:09:00Z,27.8903,-94.0367,1013.41,11111222 
TABS,ioos:station:wmo:42046:1,2002-06-10T04:39:00Z,27.8903,-94.0367,1013.73,11111222 
TABS,ioos:station:wmo:42046:1,2002-06-10T05:39:00Z,27.8903,-94.0367,1013.34,11111222 
TABS,ioos:station:wmo:42046:1,2002-06-10T07:39:00Z,27.8903,-94.0367,1012.58,11111222 
TABS,ioos:station:wmo:42046:1,2002-06-10T08:39:00Z,27.8903,-94.0367,1011.95,11111222 
TABS,ioos:station:wmo:42046:1,2002-06-10T10:09:00Z,27.8903,-94.0367,1011.88,11111222 
TABS,ioos:station:wmo:42046:1,2002-06-10T11:09:00Z,27.8903,-94.0367,1012.14,11111222 
TABS,ioos:station:wmo:42046:1,2002-06-10T12:39:00Z,27.8903,-94.0367,1012.84,11111222 
TABS,ioos:station:wmo:42046:1,2002-06-10T14:09:00Z,27.8903,-94.0367,1013.41,11111222 
TABS,ioos:station:wmo:42046:1,2002-06-10T15:09:00Z,27.8903,-94.0367,1013.54,11111222 
TABS,ioos:station:wmo:42046:1,2002-06-10T16:09:00Z,27.8903,-94.0367,1014.04,11111222 
TABS,ioos:station:wmo:42046:1,2002-06-10T17:39:00Z,27.8903,-94.0367,1013.66,11111222 
TABS,ioos:station:wmo:42046:1,2002-06-10T19:09:00Z,27.8903,-94.0367,1013.22,11111222 
TABS,ioos:station:wmo:42046:1,2002-06-10T19:39:00Z,27.8903,-94.0367,1012.96,11111222 
TABS,ioos:station:wmo:42046:1,2002-06-10T20:09:00Z,27.8903,-94.0367,1012.84,11111222 
TABS,ioos:station:wmo:42046:1,2002-06-10T21:39:00Z,27.8903,-94.0367,1012.46,11111222 
TABS,ioos:station:wmo:42046:1,2002-06-10T22:39:00Z,27.8903,-94.0367,1012.33,11111222 
TABS,ioos:station:wmo:42046:1,2002-06-10T23:39:00Z,27.8903,-94.0367,1012.01,11111222 
TABS,ioos:station:wmo:42046:1,2002-06-11T00:09:00Z,27.8903,-94.0367,1012.14,11111222 
TABS,ioos:station:wmo:42046:1,2002-06-11T01:09:00Z,27.8903,-94.0367,1012.27,11111222 
TABS,ioos:station:wmo:42046:1,2002-06-11T02:39:00Z,27.8903,-94.0367,1012.84,11111222 
TABS,ioos:station:wmo:42046:1,2002-06-11T04:39:00Z,27.8903,-94.0367,1013.6,11111222 
TABS,ioos:station:wmo:42046:1,2002-06-11T06:09:00Z,27.8903,-94.0367,1013.41,11111222 
TABS,ioos:station:wmo:42046:1,2002-06-11T06:39:00Z,27.8903,-94.0367,1013.22,11111222 
TABS,ioos:station:wmo:42046:1,2002-06-11T07:09:00Z,27.8903,-94.0367,1013.03,11111222 
TABS,ioos:station:wmo:42046:1,2002-06-11T08:09:00Z,27.8903,-94.0367,1012.46,11111222 
TABS,ioos:station:wmo:42046:1,2002-06-11T08:39:00Z,27.8903,-94.0367,1012.58,11111222 
TABS,ioos:station:wmo:42046:1,2002-06-11T12:39:00Z,27.8903,-94.0367,1013.28,11111222 
TABS,ioos:station:wmo:42046:1,2002-06-11T13:39:00Z,27.8903,-94.0367,1013.98,11111222 
TABS,ioos:station:wmo:42046:1,2002-06-11T14:09:00Z,27.8903,-94.0367,1014.17,11111222 
TABS,ioos:station:wmo:42046:1,2002-06-11T15:09:00Z,27.8903,-94.0367,1014.42,11111222 
TABS,ioos:station:wmo:42046:1,2002-06-11T17:09:00Z,27.8903,-94.0367,1014.42,11111222 
TABS,ioos:station:wmo:42046:1,2002-06-11T19:09:00Z,27.8903,-94.0367,1013.92,11111222 
TABS,ioos:station:wmo:42046:1,2002-06-11T19:39:00Z,27.8903,-94.0367,1013.98,11111222 
TABS,ioos:station:wmo:42046:1,2002-06-11T20:09:00Z,27.8903,-94.0367,1013.85,11111222 
TABS,ioos:station:wmo:42046:1,2002-06-11T20:39:00Z,27.8903,-94.0367,1013.66,11111222 
TABS,ioos:station:wmo:42046:1,2002-06-11T21:09:00Z,27.8903,-94.0367,1013.66,11111222 
TABS,ioos:station:wmo:42046:1,2002-06-11T21:39:00Z,27.8903,-94.0367,1013.34,11111222 
TABS,ioos:station:wmo:42046:1,2002-06-11T23:39:00Z,27.8903,-94.0367,1012.52,11111222 
TABS,ioos:station:wmo:42046:1,2002-06-12T00:39:00Z,27.8903,-94.0367,1012.52,11111222 
TABS,ioos:station:wmo:42046:1,2002-06-12T01:39:00Z,27.8903,-94.0367,1012.58,11111222 
TABS,ioos:station:wmo:42046:1,2002-06-12T02:09:00Z,27.8903,-94.0367,1012.71,11111222 
TABS,ioos:station:wmo:42046:1,2002-06-12T02:39:00Z,27.8903,-94.0367,1012.77,11111222 
TABS,ioos:station:wmo:42046:1,2002-06-12T03:39:00Z,27.8903,-94.0367,1013.15,11111222 
TABS,ioos:station:wmo:42046:1,2002-06-12T04:09:00Z,27.8903,-94.0367,1013.28,11111222 
TABS,ioos:station:wmo:42046:1,2002-06-12T04:39:00Z,27.8903,-94.0367,1013.22,11111222 
TABS,ioos:station:wmo:42046:1,2002-06-12T06:09:00Z,27.8903,-94.0367,1013.09,11111222 
TABS,ioos:station:wmo:42046:1,2002-06-12T06:39:00Z,27.8903,-94.0367,1013.15,11111222 
TABS,ioos:station:wmo:42046:1,2002-06-12T08:39:00Z,27.8903,-94.0367,1013.03,11111222 
TABS,ioos:station:wmo:42046:1,2002-06-12T09:09:00Z,27.8903,-94.0367,1013.09,11111222 
TABS,ioos:station:wmo:42046:1,2002-06-12T10:39:00Z,27.8903,-94.0367,1013.03,11111222 
TABS,ioos:station:wmo:42046:1,2002-06-12T12:39:00Z,27.8903,-94.0367,1013.92,11111222 
TABS,ioos:station:wmo:42046:1,2002-06-12T19:09:00Z,27.8903,-94.0367,1014.17,11111222 
TABS,ioos:station:wmo:42046:1,2002-06-12T19:39:00Z,27.8903,-94.0367,1014.04,11111222 
TABS,ioos:station:wmo:42046:1,2002-06-12T22:39:00Z,27.8903,-94.0367,1012.96,11111222 
TABS,ioos:station:wmo:42046:1,2002-06-13T01:39:00Z,27.8903,-94.0367,1012.84,11111222 
TABS,ioos:station:wmo:42046:1,2002-06-13T02:09:00Z,27.8903,-94.0367,1012.77,11111222 
TABS,ioos:station:wmo:42046:1,2002-06-13T02:39:00Z,27.8903,-94.0367,1012.71,11111222 
TABS,ioos:station:wmo:42046:1,2002-06-13T03:39:00Z,27.8903,-94.0367,1013.28,11111222 
TABS,ioos:station:wmo:42046:1,2002-06-13T05:09:00Z,27.8903,-94.0367,1014.04,11111222 
TABS,ioos:station:wmo:42046:1,2002-06-13T05:39:00Z,27.8903,-94.0367,1013.73,11111222 
TABS,ioos:station:wmo:42046:1,2002-06-13T06:39:00Z,27.8903,-94.0367,1013.6,11111222 
TABS,ioos:station:wmo:42046:1,2002-06-13T08:09:00Z,27.8903,-94.0367,1013.15,11111222 
TABS,ioos:station:wmo:42046:1,2002-06-13T08:39:00Z,27.8903,-94.0367,1012.84,11111222 
TABS,ioos:station:wmo:42046:1,2002-06-13T09:39:00Z,27.8903,-94.0367,1012.46,11111222 
TABS,ioos:station:wmo:42046:1,2002-06-13T10:09:00Z,27.8903,-94.0367,1012.46,11111222 
TABS,ioos:station:wmo:42046:1,2002-06-13T11:39:00Z,27.8903,-94.0367,1012.77,11111222 
TABS,ioos:station:wmo:42046:1,2002-06-13T12:39:00Z,27.8903,-94.0367,1013.09,11111222 
TABS,ioos:station:wmo:42046:1,2002-06-13T15:39:00Z,27.8903,-94.0367,1013.54,11111222 
TABS,ioos:station:wmo:42046:1,2002-06-13T20:39:00Z,27.8903,-94.0367,1012.52,11111222 
TABS,ioos:station:wmo:42046:1,2002-06-13T21:39:00Z,27.8903,-94.0367,1012.2,11111222 
TABS,ioos:station:wmo:42046:1,2002-06-13T22:39:00Z,27.8903,-94.0367,1011.82,11111222 
TABS,ioos:station:wmo:42046:1,2002-06-13T23:39:00Z,27.8903,-94.0367,1011.88,11111222 
TABS,ioos:station:wmo:42046:1,2002-06-14T00:39:00Z,27.8903,-94.0367,1012.33,11111222 
TABS,ioos:station:wmo:42046:1,2002-06-14T01:39:00Z,27.8903,-94.0367,1012.46,11111222 
TABS,ioos:station:wmo:42046:1,2002-06-14T02:09:00Z,27.8903,-94.0367,1012.52,11111222 
TABS,ioos:station:wmo:42046:1,2002-06-14T04:39:00Z,27.8903,-94.0367,1013.47,11111222 
TABS,ioos:station:wmo:42046:1,2002-06-14T05:09:00Z,27.8903,-94.0367,1013.6,11111222 
TABS,ioos:station:wmo:42046:1,2002-06-14T06:39:00Z,27.8903,-94.0367,1013.15,11111222 